Location: Newark
(36.0797°N, 3.9744°E)
Time: 11:21:25
(UTC+00:00)

S-56A Canister/Altair - All Passes

Search period start: 10 December 2019 00:00
Search period end: 20 December 2019 00:00
Orbit: 633 x 2500 km, 38.9° (Epoch: 09 December)

Date Brightness Start Highest point End Pass type
(mag) Time Alt. Az. Time Alt. Az. Time Alt. Az.
10 Dec - 07:50:11 10° SSW 08:01:41 40° SE 08:15:03 10° ENE daylight
10 Dec - 09:53:17 10° WSW 10:07:29 79° SSE 10:22:19 10° ENE daylight
10 Dec - 11:59:44 10° W 12:15:04 80° N 12:28:27 10° E daylight
10 Dec - 14:07:27 10° WNW 14:22:31 89° SSW 14:33:43 10° ESE daylight
10 Dec - 16:15:25 10° WNW 16:27:51 46° SW 16:36:40 10° SSE daylight
10 Dec - 18:29:18 10° WSW 18:30:29 10° WSW 18:31:38 10° SW visible
11 Dec - 07:17:46 10° SSW 07:28:26 35° SE 07:41:07 10° ENE daylight
11 Dec - 09:20:10 10° SW 09:33:49 75° SSE 09:48:51 10° ENE daylight
11 Dec - 11:26:09 10° W 11:41:16 81° N 11:55:15 10° E daylight
11 Dec - 13:33:39 10° WNW 13:48:58 88° NNE 14:00:51 10° ESE daylight
11 Dec - 15:41:28 10° WNW 15:54:47 53° SW 16:04:18 10° SE daylight
11 Dec - 17:52:29 10° W 17:57:49 14° WSW 18:02:23 10° SSW visible
12 Dec - 06:45:31 10° S 06:55:16 30° SE 07:07:02 10° E daylight
12 Dec - 08:47:11 10° SW 09:00:13 70° SSE 09:15:17 10° ENE daylight
12 Dec - 10:52:40 10° W 11:07:28 82° N 11:21:57 10° E daylight
12 Dec - 12:59:54 10° WNW 13:15:20 86° NNE 13:27:53 10° ESE daylight
12 Dec - 15:07:33 10° WNW 15:21:36 59° SW 15:31:50 10° SE daylight
12 Dec - 17:17:29 10° W 17:25:05 19° SW 17:31:17 10° SSW visible
13 Dec - 06:13:29 10° S 06:22:12 26° SE 06:32:46 10° E visible
13 Dec - 08:14:18 10° SW 08:26:41 65° SSE 08:41:38 10° ENE daylight
13 Dec - 10:19:17 10° W 10:33:40 84° N 10:48:33 10° ENE daylight
13 Dec - 12:26:14 10° W 12:41:37 83° N 12:54:49 10° E daylight
13 Dec - 14:33:42 10° WNW 14:48:18 65° SSW 14:59:15 10° SE daylight
13 Dec - 16:42:54 10° W 16:52:16 24° SW 16:59:42 10° S visible
14 Dec - 05:41:42 10° S 05:49:14 21° SE 05:58:16 10° E visible
14 Dec - 07:41:34 10° SW 07:53:14 60° SE 08:07:53 10° ENE daylight
14 Dec - 09:46:00 10° WSW 09:59:53 86° NNW 10:15:04 10° ENE daylight
14 Dec - 11:52:38 10° W 12:07:51 82° N 12:21:38 10° E daylight
14 Dec - 13:59:54 10° WNW 14:14:54 70° SSW 14:26:34 10° SE daylight
14 Dec - 16:08:33 10° W 16:19:21 29° SW 16:27:49 10° S daylight
15 Dec - 05:10:18 10° SSE 05:16:21 17° SE 05:23:27 10° E visible
15 Dec - 07:08:57 10° SW 07:19:53 54° SE 07:34:05 10° ENE daylight
15 Dec - 09:12:51 10° WSW 09:26:09 89° NNW 09:41:30 10° ENE daylight
15 Dec - 11:19:07 10° W 11:34:02 81° N 11:48:22 10° E daylight
15 Dec - 13:26:10 10° WNW 13:41:23 75° SSW 13:53:45 10° SE daylight
15 Dec - 15:34:21 10° WNW 15:46:20 34° SW 15:55:45 10° SSE daylight
16 Dec - 04:39:38 10° SE 04:43:33 13° ESE 04:47:54 10° E visible
16 Dec - 06:36:27 10° SSW 06:46:39 48° SE 07:00:11 10° ENE daylight
16 Dec - 08:39:48 10° WSW 08:52:27 88° SSE 09:07:51 10° ENE daylight
16 Dec - 10:45:41 10° W 11:00:13 80° N 11:14:59 10° E daylight
16 Dec - 12:52:31 10° WNW 13:07:48 80° SSW 13:20:49 10° ESE daylight
16 Dec - 15:00:18 10° WNW 15:13:14 39° SW 15:23:29 10° SSE daylight
17 Dec - 06:04:05 10° SSW 06:13:31 42° SE 06:26:13 10° ENE visible
17 Dec - 08:06:52 10° WSW 08:18:51 84° SSE 08:34:09 10° ENE daylight
17 Dec - 10:12:22 10° W 10:26:24 80° N 10:41:30 10° E daylight
17 Dec - 12:18:56 10° WNW 12:34:09 84° SSW 12:47:46 10° ESE daylight
17 Dec - 14:26:21 10° WNW 14:40:01 44° SW 14:51:04 10° SSE daylight
17 Dec - 16:40:08 10° WSW 16:43:20 11° WSW 16:46:22 10° SW daylight
18 Dec - 05:31:52 10° SSW 05:40:29 36° SE 05:52:10 10° ENE visible
18 Dec - 07:34:02 10° WSW 07:45:20 80° SSE 08:00:22 10° ENE daylight
18 Dec - 09:39:08 10° W 09:52:35 80° N 10:07:54 10° E daylight
18 Dec - 11:45:26 10° WNW 12:00:25 88° SSW 12:14:36 10° ESE daylight
18 Dec - 13:52:30 10° WNW 14:06:41 50° SW 14:18:31 10° SSE daylight
18 Dec - 16:03:50 10° W 16:10:27 15° SW 16:16:22 10° SSW daylight
19 Dec - 04:59:48 10° S 05:07:35 31° SE 05:18:02 10° ENE visible
19 Dec - 07:01:19 10° WSW 07:11:55 75° SSE 07:26:33 10° ENE daylight
19 Dec - 09:06:00 10° W 09:18:50 80° N 09:34:15 10° E daylight
19 Dec - 11:12:02 10° WNW 11:26:40 89° NNE 11:41:19 10° ESE daylight
19 Dec - 13:18:47 10° WNW 13:33:18 55° SW 13:45:50 10° SE daylight
19 Dec - 15:28:45 10° W 15:37:29 19° SW 15:45:08 10° SSW daylight
